TimeEST,TemperatureF,Dew PointF,Humidity,Sea Level PressureIn,VisibilityMPH,Wind Direction,Wind SpeedMPH,Gust SpeedMPH,PrecipitationIn,Events,Conditions,WindDirDegrees,DateUTC
12:01 AM,15.8,8.6,73,30.22,2.5,WNW,15.0,21.9,0.00,Snow,Light Snow,300,2013-12-25 05:01:00
12:15 AM,15.8,6.8,68,30.23,5.0,WNW,15.0,25.3,0.00,Snow,Light Snow,300,2013-12-25 05:15:00
12:54 AM,14.0,6.1,71,30.30,4.0,WNW,20.7,27.6,0.00,Snow,Light Snow,290,2013-12-25 05:54:00
1:05 AM,14.0,6.8,73,30.24,2.0,WNW,13.8,26.5,0.00,Snow,Light Snow,290,2013-12-25 06:05:00
1:12 AM,12.2,6.8,79,30.24,1.2,WNW,11.5,20.7,0.00,Snow,Light Snow,290,2013-12-25 06:12:00
1:54 AM,12.9,7.0,77,30.33,2.0,NW,13.8,20.7,0.00,Snow,Light Snow,310,2013-12-25 06:54:00
2:03 AM,12.2,6.8,79,30.27,4.0,WNW,12.7,27.6,0.00,Snow,Light Snow,300,2013-12-25 07:03:00
2:21 AM,12.2,3.2,67,30.27,10.0,WNW,19.6,26.5,0.00,,Overcast,300,2013-12-25 07:21:00
2:54 AM,10.9,1.9,67,30.36,10.0,NW,10.4,19.6,0.00,,Overcast,310,2013-12-25 07:54:00
3:13 AM,10.4,1.4,67,30.29,10.0,WNW,18.4,24.2,N/A,,Scattered Clouds,290,2013-12-25 08:13:00
3:39 AM,10.4,1.4,67,30.30,10.0,WNW,5.8,18.4,N/A,,Mostly Cloudy,300,2013-12-25 08:39:00
3:54 AM,9.0,1.0,70,30.38,10.0,Variable,5.8,-,N/A,,Mostly Cloudy,0,2013-12-25 08:54:00
4:54 AM,9.0,1.0,70,30.40,10.0,WNW,10.4,18.4,N/A,,Overcast,300,2013-12-25 09:54:00
5:24 AM,8.6,-0.4,67,30.33,10.0,NW,10.4,18.4,N/A,,Scattered Clouds,320,2013-12-25 10:24:00
5:54 AM,7.0,-0.0,73,30.43,10.0,NNW,8.1,-,N/A,,Partly Cloudy,330,2013-12-25 10:54:00
6:54 AM,7.0,-0.9,70,30.44,10.0,WNW,12.7,-,N/A,,Clear,300,2013-12-25 11:54:00
7:54 AM,7.0,-0.9,70,30.46,10.0,NNW,8.1,-,N/A,,Clear,330,2013-12-25 12:54:00
8:54 AM,9.0,-0.0,67,30.49,10.0,WNW,4.6,-,N/A,,Clear,300,2013-12-25 13:54:00
9:54 AM,10.9,-0.0,61,30.50,10.0,WNW,8.1,-,N/A,,Clear,290,2013-12-25 14:54:00
10:54 AM,14.0,1.0,56,30.48,10.0,West,5.8,-,N/A,,Clear,270,2013-12-25 15:54:00
11:54 AM,16.0,1.9,54,30.48,10.0,West,9.2,-,N/A,,Clear,280,2013-12-25 16:54:00
12:54 PM,17.1,1.9,52,30.45,10.0,Variable,3.5,-,N/A,,Clear,0,2013-12-25 17:54:00
1:54 PM,17.1,1.9,52,30.45,10.0,WSW,4.6,-,N/A,,Clear,240,2013-12-25 18:54:00
2:54 PM,18.0,3.0,52,30.46,10.0,SW,5.8,-,N/A,,Clear,230,2013-12-25 19:54:00
3:54 PM,18.0,3.0,52,30.47,10.0,SW,4.6,-,N/A,,Clear,220,2013-12-25 20:54:00
4:54 PM,17.1,3.0,54,30.48,10.0,SW,4.6,-,N/A,,Clear,220,2013-12-25 21:54:00
5:54 PM,17.1,3.9,56,30.48,10.0,Calm,Calm,-,N/A,,Scattered Clouds,0,2013-12-25 22:54:00
6:54 PM,17.1,3.0,54,30.49,10.0,WSW,3.5,-,N/A,,Scattered Clouds,240,2013-12-25 23:54:00
7:54 PM,17.1,3.9,56,30.48,10.0,Variable,3.5,-,N/A,,Scattered Clouds,0,2013-12-26 00:54:00
8:54 PM,17.1,6.1,62,30.46,10.0,SE,5.8,-,N/A,,Mostly Cloudy,140,2013-12-26 01:54:00
9:54 PM,18.0,5.0,57,30.45,10.0,SE,9.2,-,N/A,,Overcast,130,2013-12-26 02:54:00
10:54 PM,18.0,3.9,54,30.44,10.0,ESE,5.8,-,N/A,,Overcast,110,2013-12-26 03:54:00
11:54 PM,19.0,3.9,52,30.42,10.0,SE,6.9,-,N/A,,Overcast,130,2013-12-26 04:54:00